2023/08/14 00:00:00,38.0,21.0
2023/08/14 00:10:00,38.1,20.8
2023/08/14 00:20:00,38.2,20.8
2023/08/14 00:30:00,38.2,20.6
2023/08/14 00:40:00,38.2,20.5
2023/08/14 00:50:00,38.2,20.4
2023/08/14 01:00:00,38.2,20.4
2023/08/14 01:10:00,38.2,20.2
2023/08/14 01:20:00,38.3,19.9
2023/08/14 01:30:00,38.4,19.9
2023/08/14 01:40:00,38.4,19.8
2023/08/14 01:50:00,38.3,19.8
2023/08/14 02:00:00,38.4,19.9
2023/08/14 02:10:00,38.3,19.9
2023/08/14 02:20:00,38.2,19.6
2023/08/14 02:30:00,38.2,19.5
2023/08/14 02:40:00,38.2,19.6
2023/08/14 02:50:00,38.2,19.8
2023/08/14 03:00:00,38.2,19.3
2023/08/14 03:10:00,38.1,19.4
2023/08/14 03:20:00,38.0,19.4
2023/08/14 03:30:00,37.9,19.7
2023/08/14 03:40:00,37.8,19.4
2023/08/14 03:50:00,37.8,19.7
2023/08/14 04:00:00,37.8,19.7
2023/08/14 04:10:00,37.6,20.1
2023/08/14 04:20:00,37.5,19.7
2023/08/14 04:30:00,37.4,19.6
2023/08/14 04:40:00,37.3,19.8
2023/08/14 04:50:00,37.2,20.1
2023/08/14 05:00:00,37.2,20.0
2023/08/14 05:10:00,37.0,19.9
2023/08/14 05:20:00,36.9,19.9
2023/08/14 05:30:00,36.8,19.7
2023/08/14 05:40:00,36.7,19.8
2023/08/14 05:50:00,36.5,20.0
2023/08/14 06:00:00,36.4,20.1
2023/08/14 06:10:00,36.3,20.3
2023/08/14 06:20:00,41.6,20.4
2023/08/14 06:30:00,50.5,20.7
2023/08/14 06:40:00,36.8,20.7
2023/08/14 06:50:00,35.8,20.8
2023/08/14 07:00:00,35.7,21.4
2023/08/14 07:10:00,35.7,21.3
2023/08/14 07:20:00,35.7,21.4
2023/08/14 07:30:00,35.6,21.8
2023/08/14 07:40:00,46.0,22.0
2023/08/14 07:50:00,49.8,22.6
2023/08/14 08:00:00,---,23.0
2023/08/14 08:10:00,50.7,22.7
2023/08/14 08:20:00,49.3,22.9
2023/08/14 08:30:00,24.6,22.8
2023/08/14 08:40:00,25.1,22.9
2023/08/14 08:50:00,50.4,23.6
2023/08/14 09:00:00,50.6,23.7
2023/08/14 09:10:00,51.0,23.9
2023/08/14 09:20:00,34.3,24.0
2023/08/14 09:30:00,13.1,24.0
2023/08/14 09:40:00, 7.5,24.2
2023/08/14 09:50:00,---,24.5
2023/08/14 10:00:00,---,24.6
2023/08/14 10:10:00, 0.3,24.9
2023/08/14 10:20:00, 1.5,25.1
2023/08/14 10:30:00, 1.0,25.3
2023/08/14 10:40:00, 0.6,25.6
2023/08/14 10:50:00, 0.3,25.3
2023/08/14 11:00:00, 0.1,25.3
2023/08/14 11:10:00, 0.3,25.2
2023/08/14 11:20:00, 0.5,25.0
2023/08/14 11:30:00, 0.4,25.1
2023/08/14 11:40:00, 4.4,25.4
2023/08/14 11:50:00, 8.0,25.5
2023/08/14 12:00:00, 5.3,25.4
2023/08/14 12:10:00, 0.0,25.1
2023/08/14 12:20:00, 0.0,24.7
2023/08/14 12:30:00, 3.0,24.4
2023/08/14 12:40:00, 0.5,24.4
2023/08/14 12:50:00, 0.0,24.0
2023/08/14 13:00:00,---,25.0
2023/08/14 13:10:00,32.0,24.8
2023/08/14 13:20:00,12.8,25.3
2023/08/14 13:30:00,---,24.9
2023/08/14 13:40:00,---,25.0
2023/08/14 13:50:00, 0.0,25.4
2023/08/14 14:00:00, 0.0,25.4
2023/08/14 14:10:00, 9.9,24.5
2023/08/14 14:20:00,34.1,24.2
2023/08/14 14:30:00,51.1,24.6
2023/08/14 14:40:00,51.3,23.7
2023/08/14 14:50:00,51.1,24.9
2023/08/14 15:00:00,21.6,24.7
2023/08/14 15:10:00,19.8,24.4
2023/08/14 15:20:00,48.6,24.4
2023/08/14 15:30:00,---,24.3
2023/08/14 15:40:00,51.9,24.6
2023/08/14 15:50:00,52.3,24.7
2023/08/14 16:00:00,51.8,24.1
2023/08/14 16:10:00,30.3,23.9
2023/08/14 16:20:00, 3.3,23.7
2023/08/14 16:30:00,---,23.5
2023/08/14 16:40:00, 0.0,23.4
2023/08/14 16:50:00,13.7,23.5
2023/08/14 17:00:00, 0.0,23.5
2023/08/14 17:10:00,27.2,23.4
2023/08/14 17:20:00,---,23.6
2023/08/14 17:30:00,---,23.5
2023/08/14 17:40:00,32.8,23.3
2023/08/14 17:50:00,27.2,23.3
2023/08/14 18:00:00,14.5,23.4
2023/08/14 18:10:00,27.9,23.6
2023/08/14 18:20:00,44.5,23.4
2023/08/14 18:30:00,38.2,23.3
2023/08/14 18:40:00,---,23.4
2023/08/14 18:50:00,---,23.5
2023/08/14 19:00:00,---,23.7
2023/08/14 19:10:00,---,23.5
2023/08/14 19:20:00,45.1,23.1
2023/08/14 19:30:00,---,23.0
2023/08/14 19:40:00,31.5,22.8
2023/08/14 19:50:00,17.9,23.2
2023/08/14 20:00:00,13.0,23.0
2023/08/14 20:10:00, 7.3,22.9
2023/08/14 20:20:00,18.9,22.9
2023/08/14 20:30:00,25.2,23.0
2023/08/14 20:40:00,28.0,23.1
2023/08/14 20:50:00,36.0,23.0
2023/08/14 21:00:00,35.1,22.9
2023/08/14 21:10:00,34.8,22.8
2023/08/14 21:20:00,35.6,23.0
2023/08/14 21:30:00,36.1,22.8
2023/08/14 21:40:00,12.1,23.1
2023/08/14 21:50:00, 7.3,23.3
2023/08/14 22:00:00, 7.1,22.7
2023/08/14 22:10:00, 5.0,23.1
2023/08/14 22:20:00, 2.4,23.0
2023/08/14 22:30:00, 3.5,23.0
2023/08/14 22:40:00, 0.0,22.5
2023/08/14 22:50:00, 0.0,22.9
2023/08/14 23:00:00, 0.0,22.7
2023/08/14 23:10:00,---,22.8
2023/08/14 23:20:00,---,23.0
2023/08/14 23:30:00, 0.0,22.8
2023/08/14 23:40:00, 0.0,22.8
2023/08/14 23:50:00, 0.0,22.9
